Location: Smyrna_Hopewell
(35.6500°N, 81.0330°W)
Time: 21:56:26
(UTC-04:00)

Cosmos 2221 - Visible Passes

Search period start: 28 May 2016 00:00
Search period end: 07 June 2016 00:00
Orbit: 595 x 617 km, 82.5° (Epoch: 28 May)

Date Brightness Start Highest point End Pass type
(mag) Time Alt. Az. Time Alt. Az. Time Alt. Az.
28 May 4.5 00:42:49 10° N 00:44:51 27° N 00:44:51 27° N visible
29 May 4.6 00:56:09 10° NNW 00:58:04 24° NNW 00:58:04 24° NNW visible
29 May 4.8 23:32:52 10° NNE 23:34:25 16° NE 23:34:25 16° NE visible
30 May 4.9 01:09:47 10° NNW 01:11:18 19° NW 01:11:18 19° NW visible
30 May 4.3 23:45:26 10° NNE 23:47:39 24° NE 23:47:39 24° NE visible
31 May 5.2 01:23:52 10° NW 01:24:32 12° NW 01:24:32 12° NW visible
31 May 4.0 23:58:21 10° N 00:00:55 33° NNE 00:00:55 33° NNE visible
02 Jun 3.9 00:11:33 10° N 00:14:11 36° NNW 00:14:11 36° NNW visible
02 Jun 4.8 22:49:15 10° NE 22:50:34 12° ENE 22:50:34 12° ENE visible
03 Jun 4.2 00:24:58 10° NNW 00:27:27 29° NW 00:27:27 29° NW visible
03 Jun 4.2 23:01:18 10° NNE 23:03:52 21° ENE 23:03:52 21° ENE visible
04 Jun 4.7 00:38:43 10° NW 00:40:45 20° WNW 00:40:45 20° WNW visible
04 Jun 3.6 23:14:00 10° N 23:17:10 34° NE 23:17:10 34° NE visible
05 Jun 5.2 00:53:05 10° WNW 00:54:03 12° WNW 00:54:03 12° WNW visible
05 Jun 3.0 23:27:01 10° N 23:30:29 54° NNE 23:30:29 54° NNE visible
06 Jun 3.1 23:40:17 10° NNW 23:43:49 53° NW 23:43:49 53° NW visible
